Voltar ao catálogo

COSMOS 2404

GLONASS

AtivoNavegaçãoMEO
NORAD 28112·PAYLOAD·🇷🇺 Russia

Lançado Dec 10, 2003 de Baikonur Cosmodrome

Loading…

Próximas Passagens (próximas 24 horas)

TLE

EnvelhecendoSource: Space-Track

Época: Aug 31, 2026, 14:14 UTC

1 28112U 03056A   26243.59353498  .00000012  00000-0  00000+0 0  9993
2 28112  64.3084  59.4328 0050463  70.0385 290.1083  2.13088262176822

Acompanhe COSMOS 2404 em tempo real com AllMySat

Download on the App Store